This is the latest recevied weather packets stored in our database for station/object AI9F. If no packets are shown the sender has not sent any weather packets the latest 10 day(s).
| Time | Temp. | Humidity | Pressure | Rain* | Wind** | Luminosity | Snow |
|---|---|---|---|---|---|---|---|
| 1777244266 | 25.56° C | 42% | 1011.9 hPa | 0 mm | - | 102 W/m² | - |
| 1777243964 | 25.56° C | 42% | 1011.8 hPa | 0 mm | - | 120 W/m² | - |
| 1777243661 | 26.11° C | 40% | 1011.9 hPa | 0 mm | - | 111 W/m² | - |
| 1777243358 | 26.11° C | 42% | 1012.2 hPa | 0 mm | - | 197 W/m² | - |
| 1777243053 | 25.56° C | 39% | 1012 hPa | 0 mm | - | 194 W/m² | - |
| 1777242751 | 26.11° C | 41% | 1012.1 hPa | 0 mm | - | 165 W/m² | - |
| 1777242447 | 26.11° C | 41% | 1011.9 hPa | 0 mm | - | 154 W/m² | - |
| 1777242144 | 26.11° C | 40% | 1012 hPa | 0 mm | - | 213 W/m² | - |
| 1777241840 | 26.67° C | 39% | 1012.2 hPa | 0 mm | - | 200 W/m² | - |
| 1777241538 | 26.67° C | 42% | 1012.1 hPa | 0 mm | - | 261 W/m² | - |
| 1777241236 | 26.67° C | 42% | 1012.1 hPa | 0 mm | - | 310 W/m² | - |
| 1777240933 | 27.22° C | 38% | 1012.1 hPa | 0 mm | - | 329 W/m² | - |
| 1777240630 | 27.22° C | 38% | 1012.2 hPa | 0 mm | - | 335 W/m² | - |
| 1777240328 | 27.22° C | 40% | 1012.3 hPa | 0 mm | - | 358 W/m² | - |
| 1777240025 | 27.22° C | 39% | 1012 hPa | 0 mm | - | 379 W/m² | - |
| 1777239723 | 27.22° C | 39% | 1012 hPa | 0 mm | - | 398 W/m² | - |
| 1777239419 | 27.22° C | 41% | 1011.7 hPa | 0 mm | - | 422 W/m² | - |
| 1777239116 | 27.22° C | 39% | 1011.8 hPa | 0 mm | - | 432 W/m² | - |
| 1777238813 | 27.22° C | 41% | 1012 hPa | 0 mm | - | 433 W/m² | - |
| 1777238510 | 27.78° C | 40% | 1012.1 hPa | 0 mm | - | 474 W/m² | - |
| 1777238206 | 27.22° C | 43% | 1011.9 hPa | 0 mm | - | 481 W/m² | - |
| 1777237904 | 27.22° C | 44% | 1012.1 hPa | 0 mm | - | 486 W/m² | - |
| 1777237599 | 27.22° C | 42% | 1011.8 hPa | 0 mm | - | 507 W/m² | - |
| 1777237298 | 26.67° C | 44% | 1012 hPa | 0 mm | - | 494 W/m² | - |
| 1777236994 | 26.67° C | 44% | 1012 hPa | 0 mm | - | 508 W/m² | - |
* Rain latest hour (hover to see other rain measurements)
** Current wind speed in m/s (hover to see current wind gust speed)